Погода в Кабале

Погода в Кабале : погода сейчас, прогноз погоды и архив. Всё, что Вы хотите узнать о погоде в Кабале!

Поиск расширенной информации на нашем сайте:

Полезная информация: Цветы в шляпных коробках цветы в шляпных коробках. 3

Другие новости

Новости СМИ2

Главная страница сайта

Новости сайта

02.10.2013

Напоминаем, что на нашем новом сайте вы можете получить высокодетализированные прогнозы погоды по пунктам России, СНГ и мира (включающие важные для авиации метеовеличины, такие как направление и скорость ветра, видимость, явления погоды, количество и форма облачности, нижняя и верхняя граница облачности), а также ознакомиться с разнообразными материалами по авиационной метеорологии и подборкой полезных ссылок на эту тему.

Сайт Метеоцентр.Азия посвящён разработке технологий оптимизации авиаметеорологического обслуживания, включая проектирование и перспективное создание нескольких автоматизированных авиаметеорологических систем:
- система выпуска высокодетальных прогностических карт явлений погоды для нижнего воздушного пространства по России и ближнему зарубежью;
- система верификации прогнозов TAF (выпускаемых синоптиками официальных АМСГ РФ и ближнего зарубежья) и AUTOTAF (выпускаемых сайтом Метеоцентр.Азия) - выявление ошибок, онлайн-сопоставление с фактической погодой METAR, автоматическое внесение коррективов в прогнозы при резком отклонении фактической погоды от прогноза, подсчёт оправдываемости прогнозов по элементам и в целом;
- система обработки, анализа и отображения авиаметеорологической информации для применения провайдерами метеорологической информации.

Рекомендуем: У нас товары для похудения приобрести реально выгодно!

Погода в Кабале - сегодня

Время (UTC), дата Ветер
(°,м/с) 
Видим.   Явления Облачность Т
(°С)
Тd
(°С)
f(%) Тe
(°С)
Pmin
(гПа)
dP
(гПа)
Po
(мм)
O2
(г/м3)
Тmin Tmax R s Состояние
почвы
15 24.04.17 090 (В) 10 км    10/10 600 м 
[Ns]
+11.3 +9.7 90 +14  1016.6  2.9  703  270         
18 24.04.17 360 (С) 4000 м  дождь со снегом  10/10 600 м 
[Ns]
+9.8 +8.1 89 +10  1020.4  3.2  706  273    +16.8       
21 24.04.17 360 (С) 4000 м  в посл. час дождь  10/10 600 м 
[Ns]
+8.4 +6.7 89 +8  1020.5  -0.4  705  274           
00 25.04.17 360 (С) 4000 м    10/10 600 м 
[Sc]
+8.8 +6.4 85 +9  1019.9  -0.4  705  274           
03 25.04.17 050 (СВ) 20000 м    3/0 средняя 
[Ac trans]
+7.2 +4.1 81 +7  1021.9  1.4  706  276         
06 25.04.17 200 (Ю) 10 км    10/10 600 м 
[Sc]
+11.1 +7.1 76 +12  1023.1  2.1  708  273           
09 25.04.17 180 (Ю) 10 км    10/10 600 м 
[Sc]
+10.1 +7 81 +11  1024.5  708  274           
12 25.04.17 360 (С) 10 км    10/10 600 м 
[Sc]
+10.1 +6.7 79 +11  1025.4  0.9  709  274           
15 25.04.17 050 (СВ) 10 км    10/10 600 м 
[Sc]
+9.6 +7.3 86 +11  1025.7  0.1  709  275           
18 25.04.17 360 (С) 4000 м    10/10 600 м 
[Sc]
+7.8 +6.2 90 +9  1029.5  711  278    +11.5       
21 25.04.17 360 (С) 4000 м    10/10 600 м 
[Sc]
+6.8 +5.5 91 +8  1032  713  279           
00 26.04.17 340 (С) 4000 м    10/10 600 м 
[Sc]
+5.7 +4.5 92 +5  1033.8  1.4  714  281           
03 26.04.17 360 (С) 10 км  в посл. час дождь  10/10 600 м 
[Ns]
+6 +4.9 93 +7  1034.5  0.7  714  281         
06 26.04.17 180 (Ю) 10 км  слаб. дождь  10/10 600 м 
[Ns]
+6 +4.6 91 +6  1036.8  2.1  709  279           
09 26.04.17 360 (С) 10 км    10/10 600 м 
[Sc]
+5.4 +3 84 +6  1037.9  0.8  717  283           
12 26.04.17 180 (Ю) 10 км    10/10 600 м 
[Sc]
+8.4 +3.8 73 +9  1035.6  -1.2  716  279           
15 26.04.17 270 (З) 10 км    10/10 600 м 
[Sc]
+8.6 +4 73 +10  1035.1  -0.4  715  279         
18 26.04.17 360 (С) 4000 м    10/10 600 м 
[Sc]
+7.8 +4.3 79 +9  1035.6  0.2  716  280    +9.6       
21 26.04.17 360 (С) 20000 м    ясно 
+5.2 +3.8 91 +6  1036  -0.3  715  282           
00 27.04.17 360 (С) 20000 м    ясно 
+4.6 +1.5 80 +5  1035.5  -0.7  715  283           
03 27.04.17 360 (С) 20000 м    ясно 
+4.8 +1.2 77 +6  1035.1  -0.3  715  283           
06 27.04.17 360 (С) 20000 м    4/4 1000 м 
[Sc]
+9.8 +4.6 70 +10  1034.8  1.1  715  277           
09 27.04.17 270 (З) 10 км    4/4 600 м 
[Sc]
+13.7 +5.1 56 +15  1032.5  -1  715  273           
12 27.04.17 230 (ЮЗ) 10 км    10/10 600 м 
[Sc]
+15.7 +5.9 52 +17  1030.2  -1.6  713  271           
15 27.04.17 180 (Ю) 10 км    9/9 600 м 
[Sc]
+12.5 +4.1 57 +13  1031.4  0.2  714  274           
Время (UTC), дата Ветер
(°,м/с) 
Видим.   Явления Облачность Т
(°С)
Тd
(°С)
f(%) Тe
(°С)
Pmin
(гПа)
dP
(гПа)
Po
(мм)
O2
(г/м3)
Тmin Tmax R s Состояние
почвы

Для получения пояснительной информации подведите курсор к названию столбца.

ПОГОДА в Кабале - архив

Всё, что Вы хотите узнать о погоде в Кабале - удобно и подробно!

Выберите нужную дату (начиная с 1 января 2015* года) и нажмите кнопку "Найти".
Будут отображены архивные сводки погоды по пункту Кабала, начиная с указанной даты.


Отображать данные в формате CSV (для использования в таблицах Excel)


Внимание! Наш архив погоды предназначен исключительно для личного некоммерческого использования в познавательных целях. Если Вам необходимы официальные справки о состоянии погоды (для производственных, юридических, коммерческих и т.п. целей), обращайтесь в органы Росгидромета.

*Примечание: данная дата относится к архиву по метеостанциям СССР (Россия, СНГ, Балтия).
Архив по метеостанциям Зарубежной Европы и Азии (кроме Китая) хранится 10 дней, по другим регионам земного шара (Китай, Африка, Америка, Австралия, Океания) - 1 день.

Кабала - район местоположения метеостанции


Название, широта, долгота, высота метеостанции:
Кабала 41°ш. 47.9°д. 682 м над ур. моря [Азербайджан]

Дополнительная информация

В oтличие oт бoльшинства пoгoдных сайтoв мы публикуем пoдрoбную метеoинфoрмацию в детальнoм прoфессиoнальнoм фoрмате.

Характеристики температуры и влажнoсти вoздуха измеряются на высoте 2 м в тени вдали oт зданий и деревьев.
Скoрoсть ветра измеряется на высoте 10 м (на урoвне рoста челoвека скoрoсть ветра ниже в 1.5-2 раза). Если метеoстанция нахoдится в гoрoде или в лесу, тo скoрoсть ветра занижена на 2-4 м/с пo сравнению с oткрытым местoм. Скoрoсть ветра над акватoриями крупных рек и oзёр, а также на вершинах хoлмoв на 2-5 м/с выше, чем в oбычных услoвиях.
Атмoсфернoе давление в разных тoчках местнoсти мoжет значительнo oтличаться oт давления на метеoстанции, в зависимoсти oт услoвий рельефа (при пoдъёме на 10 м давление пoнижается примернo на 1 мм рт.ст.).